map of IAD home
Great Circle Mapper logo
IAD - Airport
Location
City:  Washington, District of Columbia, United States
Name:Washington Dulles International Airport
ICAO / IATA:KIAD / IAD
FAA:IAD

Details
Type:Airport (Part 139 Class I)
Use:Public/Civil, International (customs landing rights)
Latitude:3856'51"N (38.947444)
Longitude:7727'36"W (-77.459943)
Datum:WGS 1984
Elevation:313 ft (95 m)
Runways:4
Longest:11500 × 150 ft (3505 × 45.5 m), paved

Time
Time Zone:UTC-5 (DST-4)
Local Time:

Weather
METAR:KIAD 240652Z 31010KT 10SM FEW060 12/05 A2993 RMK AO2 SLP135 T01170050
TAF:KIAD 240524Z 2406/2512 32010KT P6SM SKC
TEMPO 2406/2409 31012G22KT P6SM SKC
FM241300 31012G21KT P6SM FEW150
FM250000 31006KT P6SM FEW250

Related Locations
Nearby:
Farthest:MGV: 11661 mi / 18767 km
Margaret River, WA, AU

Find:

   beyond  
but within

Other Information
Maps:
Delays:
NOTAMs:
Links:
Sources:

  
flag of United States
flag of District of Columbia
  

Airport Diagram

Airport diagram for IAD

Airport diagram PDF

Sectional Chart

Flight Planning
at skyvector.com

Satellite Image

Google Maps Satellite View

 

Copyright © 2004-2014 Karl L. Swartz. All rights reserved.
The Great Circle Mapper name and logo are trademarks of the Great Circle Mapper.
All other trademarks mentioned herein belong to their respective owners.
Please see credits for attibutions and further copyright information.

  Follow gcmap on Facebook Follow gcmap on Twitter

hCard Microformat

Geo Microformat